Date,TemperatureHighF,TemperatureAvgF,TemperatureLowF,DewpointHighF,DewpointAvgF,DewpointLowF,HumidityHigh,HumidityAvg,HumidityLow,PressureMaxIn,PressureMinIn,WindSpeedMaxMPH,WindSpeedAvgMPH,GustSpeedMaxMPH,PrecipitationSumIn
2013-3-1,65,61,58,58,51,47,86,68,56,29.85,29.76,10,5,0,0.00
2013-3-2,66,58,50,49,41,34,79,56,37,29.89,29.81,21,7,0,0.00
2013-3-3,62,54,49,47,41,37,89,64,44,30.02,29.83,16,6,0,0.00
2013-3-4,68,54,41,46,36,27,88,55,22,30.08,29.99,14,5,0,0.00
2013-3-5,76,63,47,57,53,46,99,72,48,30.05,29.94,12,4,0,0.00
2013-3-6,78,64,53,63,51,32,99,68,27,29.95,29.79,23,8,0,0.01
2013-3-7,72,59,47,56,44,35,96,61,36,30.05,29.94,11,5,0,0.00
2013-3-8,76,62,52,54,50,42,99,68,30,30.07,29.96,11,4,0,0.00
2013-3-9,75,65,54,56,53,50,93,68,50,30.05,29.97,16,5,0,0.00
2013-3-10,76,70,65,60,56,52,73,61,47,30.01,29.92,16,7,0,0.00
2013-3-11,78,72,68,63,60,57,79,67,50,29.96,29.81,14,7,0,0.00
2013-3-12,81,74,69,70,66,62,88,76,65,29.85,29.75,12,6,0,0.00
2013-3-13,75,66,56,66,54,43,97,71,37,29.98,29.83,13,6,0,0.00
2013-3-14,71,61,54,53,46,38,90,62,31,30.06,29.94,14,6,0,0.00
2013-3-15,72,62,52,54,50,45,90,66,43,30.12,30.00,11,4,0,0.00
2013-3-16,76,64,53,60,54,50,99,72,42,30.06,29.94,9,3,0,0.00
2013-3-17,77,67,57,61,59,56,99,75,54,30.01,29.88,11,3,0,0.00
2013-3-18,81,71,63,71,66,61,99,85,63,29.93,29.81,16,4,0,0.63
2013-3-19,82,73,67,71,68,65,99,87,58,29.85,29.69,16,4,0,0.02
2013-3-20,86,73,63,72,65,56,99,78,45,29.82,29.65,13,4,0,0.00
2013-3-21,77,66,56,63,54,43,99,68,31,29.80,29.67,14,5,0,0.00
2013-3-22,76,67,53,70,60,53,99,80,57,29.86,29.75,13,4,0,0.00
2013-3-23,88,78,70,75,72,69,99,84,55,29.84,29.65,14,4,0,0.00
2013-3-24,90,80,72,75,72,67,99,79,53,29.74,29.53,21,9,0,0.04
2013-3-25,80,73,64,74,59,39,99,67,33,29.85,29.59,14,6,0,0.08
2013-3-26,67,60,52,42,37,30,56,43,27,30.08,29.84,19,8,0,0.00
2013-3-27,70,56,46,47,40,33,78,55,29,30.12,30.03,12,6,0,0.00
2013-3-28,73,61,50,50,44,32,80,57,28,30.14,30.02,13,5,0,0.00
2013-3-29,75,65,54,54,49,45,81,59,41,30.15,30.05,12,4,0,0.00
2013-3-30,76,66,55,59,52,48,99,65,40,30.12,30.02,12,4,0,0.00
2013-3-31,81,71,58,66,62,55,99,73,53,30.05,29.90,11,5,0,0.00